When you browse on this site, cookies collect data to enhance your experience and personalize the content and advertising you see.
Visit our Privacy Policy to learn more. By continuing to use the site, you agree to this use of cookies and data.
  • In United Kingdom
  • List of Countries
  • For 7 days
  • Water Temperature
  • Weather Map
  • Weather Widgets
  • user-avatar
    Login

    Hourly Weather Shumen

    Today, 20 January, Monday

    Time Temperature Precipitation Wind Pressure Humidity
    00:00 -2°C° 0 mm 3 mps 741 mmHg 85%
    01:00 -2°C° 0 mm 3 mps 742 mmHg 87%
    02:00 -2°C° 0 mm 3 mps 742 mmHg 89%
    03:00 -4°C° 0 mm 3 mps 742 mmHg 89%
    04:00 -4°C° 0 mm 3 mps 742 mmHg 89%
    05:00 -4°C° 0 mm 3 mps 743 mmHg 90%
    06:00 -4°C° 0 mm 4 mps 743 mmHg 89%
    07:00 -4°C° 0 mm 4 mps 744 mmHg 88%
    08:00 -4°C° 0 mm 4 mps 744 mmHg 87%
    09:00 -4°C° 0 mm 4 mps 745 mmHg 80%
    10:00 -4°C° 0 mm 5 mps 745 mmHg 73%
    11:00 -2°C° 0 mm 5 mps 746 mmHg 66%
    12:00 -2°C° 0 mm 5 mps 746 mmHg 66%
    13:00 -2°C° 0 mm 5 mps 746 mmHg 67%
    14:00 -2°C° 0 mm 5 mps 746 mmHg 67%
    15:00 -2°C° 0 mm 5 mps 746 mmHg 68%
    16:00 -2°C° 0 mm 5 mps 746 mmHg 69%
    17:00 -2°C° 0 mm 4 mps 746 mmHg 70%
    18:00 -3°C° 0 mm 4 mps 746 mmHg 73%
    19:00 -2°C° 0 mm 3 mps 747 mmHg 76%
    20:00 -4°C° 0 mm 3 mps 747 mmHg 80%
    21:00 -4°C° 0 mm 3 mps 747 mmHg 80%
    22:00 -4°C° 0 mm 3 mps 747 mmHg 81%
    23:00 -4°C° 0 mm 3 mps 748 mmHg 81%

    Tomorrow, 21 January, Tuesday

    Time Temperature Precipitation Wind Pressure Humidity
    00:00 -4°C° 0 mm 3 mps 747 mmHg 82%
    01:00 -4°C° 0 mm 3 mps 747 mmHg 83%
    02:00 -4°C° 0 mm 3 mps 747 mmHg 83%
    03:00 -4°C° 0 mm 3 mps 747 mmHg 84%
    04:00 -5°C° 0 mm 3 mps 747 mmHg 84%
    05:00 -5°C° 0 mm 3 mps 747 mmHg 84%
    06:00 -5°C° 0 mm 3 mps 747 mmHg 84%
    07:00 -5°C° 0 mm 3 mps 747 mmHg 85%
    08:00 -5°C° 0 mm 3 mps 747 mmHg 85%
    09:00 -4°C° 0 mm 3 mps 747 mmHg 78%
    10:00 -1°C° 0 mm 3 mps 746 mmHg 71%
    11:00 -1°C° 0 mm 4 mps 746 mmHg 64%
    12:00 0°C° 0 mm 4 mps 746 mmHg 62%
    13:00 0°C° 0 mm 4 mps 746 mmHg 60%
    14:00 +1°C° 0 mm 4 mps 745 mmHg 58%
    15:00 0°C° 0 mm 4 mps 745 mmHg 62%
    16:00 0°C° 0 mm 3 mps 744 mmHg 67%
    17:00 -1°C° 0 mm 3 mps 744 mmHg 71%
    18:00 -1°C° 0 mm 2 mps 744 mmHg 73%
    19:00 -2°C° 0 mm 2 mps 744 mmHg 76%
    20:00 -3°C° 0 mm 2 mps 744 mmHg 78%
    21:00 -3°C° 0 mm 2 mps 743 mmHg 78%
    22:00 -3°C° 0 mm 2 mps 743 mmHg 77%
    23:00 -3°C° 0 mm 2 mps 743 mmHg 76%

    Day after tomorrow, 22 January, Wednesday

    Time Temperature Precipitation Wind Pressure Humidity
    00:00 -3°C° 0 mm 2 mps 742 mmHg 76%
    01:00 -3°C° 0 mm 2 mps 742 mmHg 75%
    02:00 -3°C° 0 mm 2 mps 742 mmHg 75%
    03:00 -3°C° 0 mm 2 mps 741 mmHg 75%
    04:00 -3°C° 0 mm 2 mps 741 mmHg 74%
    05:00 -3°C° 0 mm 2 mps 740 mmHg 74%
    06:00 -3°C° 0 mm 2 mps 740 mmHg 74%
    07:00 -3°C° 0 mm 2 mps 740 mmHg 73%
    08:00 -3°C° 0 mm 2 mps 740 mmHg 72%
    09:00 -1°C° 0 mm 2 mps 739 mmHg 64%
    10:00 +2°C° 0 mm 2 mps 739 mmHg 55%
    11:00 +3°C° 0 mm 3 mps 739 mmHg 47%
    12:00 +4°C° 0 mm 3 mps 738 mmHg 44%
    13:00 +5°C° 0 mm 3 mps 737 mmHg 41%
    14:00 +6°C° 0 mm 4 mps 737 mmHg 38%
    15:00 +5°C° 0 mm 3 mps 736 mmHg 42%
    16:00 +4°C° 0 mm 3 mps 735 mmHg 46%
    17:00 +3°C° 0 mm 3 mps 734 mmHg 49%
    18:00 +2°C° 0 mm 3 mps 734 mmHg 50%
    19:00 +1°C° 0 mm 3 mps 734 mmHg 51%
    20:00 +1°C° 0 mm 3 mps 733 mmHg 52%
    21:00 +1°C° 0 mm 3 mps 733 mmHg 52%
    22:00 0°C° 0 mm 3 mps 733 mmHg 52%
    23:00 0°C° 0 mm 3 mps 733 mmHg 52%

    23 January, Thursday

    Time Temperature Precipitation Wind Pressure Humidity
    00:00 -1°C° 0 mm 4 mps 733 mmHg 52%
    01:00 -1°C° 0 mm 4 mps 733 mmHg 53%
    02:00 -2°C° 0 mm 5 mps 733 mmHg 54%
    03:00 -2°C° 0 mm 4 mps 733 mmHg 59%
    04:00 -2°C° 0 mm 3 mps 734 mmHg 64%
    05:00 -3°C° 0 mm 2 mps 734 mmHg 70%
    06:00 -3°C° 0 mm 2 mps 735 mmHg 71%
    07:00 -3°C° 0 mm 2 mps 736 mmHg 72%
    08:00 -3°C° 0 mm 2 mps 737 mmHg 74%
    09:00 -1°C° 0 mm 2 mps 737 mmHg 67%
    10:00 0°C° 0 mm 3 mps 738 mmHg 60%
    11:00 +2°C° 0 mm 3 mps 739 mmHg 54%
    12:00 +2°C° 0 mm 3 mps 739 mmHg 51%
    13:00 +3°C° 0 mm 3 mps 739 mmHg 48%
    14:00 +4°C° 0 mm 4 mps 739 mmHg 45%
    15:00 +3°C° 0 mm 3 mps 739 mmHg 51%
    16:00 +2°C° 0 mm 3 mps 739 mmHg 57%
    17:00 +2°C° 0 mm 2 mps 739 mmHg 62%
    18:00 +1°C° 0 mm 2 mps 740 mmHg 66%
    19:00 +2°C° 0 mm 1 mps 740 mmHg 69%
    20:00 +1°C° 0 mm 1 mps 741 mmHg 73%
    21:00 +1°C° 0 mm 1 mps 741 mmHg 73%
    22:00 0°C° 0 mm 1 mps 742 mmHg 73%
    23:00 0°C° 0 mm 1 mps 742 mmHg 74%

    24 January, Friday

    Time Temperature Precipitation Wind Pressure Humidity
    00:00 0°C° 0 mm 1 mps 742 mmHg 73%
    01:00 -1°C° 0 mm 1 mps 742 mmHg 73%
    02:00 -1°C° 0 mm 1 mps 742 mmHg 72%
    03:00 -1°C° 0 mm 1 mps 742 mmHg 72%
    04:00 -2°C° 0 mm 1 mps 742 mmHg 71%
    05:00 -2°C° 0 mm 1 mps 742 mmHg 71%
    06:00 -2°C° 0 mm 1 mps 742 mmHg 71%
    07:00 -2°C° 0 mm 1 mps 742 mmHg 70%
    08:00 -2°C° 0 mm 1 mps 742 mmHg 70%
    09:00 -2°C° 0 mm 2 mps 742 mmHg 65%
    10:00 +1°C° 0 mm 2 mps 742 mmHg 59%
    11:00 +1°C° 0 mm 3 mps 742 mmHg 54%
    12:00 +3°C° 0 mm 2 mps 741 mmHg 51%
    13:00 +4°C° 0 mm 2 mps 741 mmHg 49%
    14:00 +5°C° 0 mm 2 mps 740 mmHg 47%
    15:00 +4°C° 0 mm 2 mps 740 mmHg 52%
    16:00 +3°C° 0 mm 2 mps 739 mmHg 57%
    17:00 +2°C° 0 mm 2 mps 739 mmHg 62%
    18:00 +2°C° 0 mm 1 mps 738 mmHg 66%
    19:00 +1°C° 0 mm 1 mps 738 mmHg 70%
    20:00 +1°C° 0 mm 1 mps 738 mmHg 73%
    21:00 0°C° 0 mm 1 mps 738 mmHg 74%
    22:00 0°C° 0 mm 1 mps 738 mmHg 75%
    23:00 0°C° 0 mm 1 mps 737 mmHg 76%

    25 January, Saturday

    Time Temperature Precipitation Wind Pressure Humidity
    00:00 0°C° 0 mm 1 mps 737 mmHg 76%
    01:00 0°C° 0 mm 1 mps 736 mmHg 77%
    02:00 0°C° 0 mm 1 mps 736 mmHg 77%
    03:00 0°C° 0 mm 1 mps 735 mmHg 78%
    04:00 0°C° 0 mm 1 mps 735 mmHg 79%
    05:00 -1°C° 0 mm 1 mps 735 mmHg 79%
    06:00 0°C° 0 mm 1 mps 735 mmHg 78%
    07:00 0°C° 0 mm 1 mps 734 mmHg 78%
    08:00 0°C° 0 mm 1 mps 734 mmHg 77%
    09:00 +2°C° 0 mm 1 mps 735 mmHg 67%
    10:00 +4°C° 0 mm 1 mps 735 mmHg 57%
    11:00 +6°C° 0 mm 1 mps 735 mmHg 48%
    12:00 +7°C° 0 mm 1 mps 734 mmHg 45%
    13:00 +8°C° 0 mm 1 mps 734 mmHg 43%
    14:00 +9°C° 0 mm 1 mps 734 mmHg 41%
    15:00 +8°C° 0 mm 1 mps 734 mmHg 45%
    16:00 +7°C° 0 mm 1 mps 733 mmHg 49%
    17:00 +6°C° 0 mm 1 mps 733 mmHg 53%
    18:00 +6°C° 0 mm 1 mps 733 mmHg 54%
    19:00 +4°C° 0 mm 2 mps 733 mmHg 55%
    20:00 +4°C° 0 mm 2 mps 733 mmHg 56%
    21:00 +4°C° 0 mm 2 mps 733 mmHg 55%
    22:00 +4°C° 0 mm 2 mps 733 mmHg 55%
    23:00 +5°C° 0 mm 2 mps 733 mmHg 54%
    Show more